Effective Sunday, March 17, 2024, the National Weather Service National Data Buoy Center will discontinue its Dial-A-Buoy Interactive Voice Response system. For more information, see Service Change Notice 24-06 (PDF).

Station CNII2 - Northerly Isle, IL Image indicating link to RSS feed of recent meteorological observations for station CNII2


Conditions at CNII2 as of
(6:30 pm CST on 02/23/2024)
0030 GMT on 02/24/2024:
     

Click on the graph icon in the table below to see a time series plot of the last five days of that observation.

5-day plot - Wind Direction Wind Direction (WDIR): N ( 10 deg true )
5-day plot - Wind Speed Wind Speed (WSPD): 15.9 kts
5-day plot - Wind Gust Wind Gust (GST): 15.9 kts
5-day plot - Air Temperature Air Temperature (ATMP): 32.7 °F
5-day plot - Dew Point Dew Point (DEWP): 29.7 °F
5-day plot - Wind Chill Wind Chill (CHILL): 21.4 °F
5-day plot - Wind Speed at 10 Meters Wind Speed at 10 meters (WSPD10M): 15.5 kts
5-day plot - Wind Speed at 20 Meters Wind Speed at 20 meters (WSPD20M): 17.5 kts
5-day plot -  Wind Speed, Wind Gust and Atmospheric Pressure Combined plot of Wind Speed, Gust, and Air Pressure
Previous observations
TIME
(CST)
5-day plot - Wind Direction
WDIR
 
5-day plot - Wind Speed
WSPD
kts
5-day plot - Wind Gust
GST
kts
5-day plot - Wave Height
WVHT
ft
5-day plot - Dominant Wave Period
DPD
sec
5-day plot - Average Wave Period
APD
sec
5-day plot - Mean Wave Direction
MWD
 
5-day plot - Atmospheric Pressure
PRES
in
5-day plot - Pressure Tendency
PTDY
in
5-day plot - Air Temperature
ATMP
°F
5-day plot - Water Temperature
WTMP
°F
5-day plot - Dew Point
DEWP
°F
5-day plot - Salinity
SAL
psu
5-day plot - Visibility
VIS
nmi
5-day plot - Tide (above MLLW)
TIDE
ft
2024-02-23 06:15 pmNNE 13.0 15.9------ 33.4- 30.0---
2024-02-23 06:00 pm N 15.9 15.9------ 33.6- 29.8---
2024-02-23 05:45 pm N 12.0 13.0------ 34.5- 30.7---
2024-02-23 05:30 pm N 7.0 13.0------ 35.6- 31.3---
2024-02-23 05:15 pmNNE 9.9 13.0------ 35.8- 30.7---
2024-02-23 05:00 pm N 6.0 13.0------ 36.1- 30.6---
2024-02-23 04:45 pm N 8.9 13.0------ 36.1- 30.6---
2024-02-23 04:30 pm N 7.0 13.0------ 36.3- 31.3---
2024-02-23 04:15 pm N 8.0 13.0------ 36.7- 31.5---
2024-02-23 04:00 pm N 9.9 13.0------ 37.2- 31.8---
2024-02-23 03:45 pmNNE 11.1 12.0------ 37.4- 32.0---
2024-02-23 03:30 pm N 8.0 12.0------ 38.3- 32.7---
2024-02-23 03:15 pm N 9.9 12.0------ 38.8- 32.2---
2024-02-23 03:00 pm N 9.9 12.0------ 39.4- 32.4---
2024-02-23 02:45 pmNNE 8.9 13.0------ 39.7- 33.1---
2024-02-23 02:30 pm N 8.9 13.0------ 40.5- 33.4---
2024-02-23 02:15 pmNNW 11.1 13.0------ 41.4- 33.1---
2024-02-23 02:00 pm N 9.9 13.0------ 42.3- 33.1---
2024-02-23 01:45 pm N 12.0 12.0------ 42.4- 31.8---
2024-02-23 01:30 pm N 9.9 12.0------ 42.6- 32.0---
2024-02-23 01:15 pm N 8.9 12.0------ 41.9- 31.8---
2024-02-23 01:00 pm N 9.9 12.0------ 42.4- 31.1---
2024-02-23 12:45 pm N 12.0------- 43.5- 31.1---
2024-02-23 12:30 pm N 7.0 8.9------ 43.2- 31.3---
2024-02-23 12:15 pmNNE 5.1 8.9------ 43.2- 31.6---
2024-02-23 12:00 pm N 8.0 8.9------ 42.8- 31.8---
2024-02-23 11:45 amNNE 6.0 8.0------ 42.1- 32.0---
2024-02-23 11:30 amNNE 6.0 8.0------ 42.8- 31.3---
2024-02-23 11:15 amENE 4.1 8.0------ 42.6- 31.3---
2024-02-23 11:00 amENE 7.0 8.0------ 42.8- 30.7---
2024-02-23 10:45 amENE 6.0 11.1------ 44.1- 30.0---
2024-02-23 10:30 amENE 6.0 11.1------ 45.1- 28.8---
2024-02-23 10:15 amWSW 2.9 11.1------ 46.2- 25.7---
2024-02-23 10:00 am W 4.1 11.1------ 45.0- 27.3---
2024-02-23 09:45 am W 6.0 12.0------ 44.6- 27.3---
2024-02-23 09:30 am W 6.0 12.0------ 44.2- 27.5---
2024-02-23 09:15 amWNW 8.0 12.0------ 43.7- 27.5---
2024-02-23 09:00 amWNW 9.9 12.0------ 43.2- 27.3---
2024-02-23 08:45 am W 5.1 14.0------ 43.2- 27.9---
2024-02-23 08:30 am W 7.0 14.0------ 42.4- 28.6---
2024-02-23 08:15 amWSW 6.0 14.0------ 41.7- 28.4---
2024-02-23 08:00 amWNW 9.9 14.0------ 41.5- 28.6---
2024-02-23 07:45 amWNW 8.0 15.9------ 41.2- 29.5---
2024-02-23 07:30 amWNW 12.0 15.9------ 40.8- 29.1---
2024-02-23 07:15 am W 8.0 15.9------ 40.5- 29.1---
2024-02-23 07:00 am W 9.9 15.9------ 40.1- 29.3---
2024-02-23 06:45 amWNW 8.9 15.9------ 40.5- 29.1---
2024-02-23 06:30 amWNW 8.0 15.9------ 40.6- 29.5---
2024-02-23 06:15 amWNW 13.0 15.9------ 40.6- 29.3---
2024-02-23 06:00 am W 13.0 15.9------ 41.0- 29.5---
2024-02-23 05:45 amWNW 8.0 12.0------ 41.4- 29.7---
2024-02-23 05:30 amWNW 12.0 12.0------ 41.9- 29.5---
2024-02-23 05:15 amWNW 11.1 12.0------ 41.9- 29.7---
2024-02-23 05:00 amWNW 8.0 12.0------ 42.3- 29.7---
2024-02-23 04:45 amWNW 8.0 15.0------ 42.8- 29.3---
2024-02-23 04:30 am W 8.9 15.0------ 43.2- 29.3---
2024-02-23 04:15 am W 8.9 15.0------ 43.3- 29.7---
2024-02-23 04:00 am NW 9.9 15.0------ 43.5- 29.8---
2024-02-23 03:45 amWNW 8.9 15.9------ 44.4- 29.7---
2024-02-23 03:30 amWNW 8.9 15.9------ 44.8- 29.5---
2024-02-23 03:15 amWNW 8.0 15.9------ 45.0- 29.8---
2024-02-23 03:00 amWNW 9.9 15.9------ 45.5- 29.8---
2024-02-23 02:45 amWNW 12.0 18.1------ 46.2- 29.5---
2024-02-23 02:30 amWNW 11.1 18.1------ 46.9- 29.7---
2024-02-23 02:15 amWNW 8.0 18.1------ 47.3- 30.0---
2024-02-23 02:00 am NW 15.9 18.1------ 47.5- 29.8---
2024-02-23 01:45 amNNW 9.9 15.9------ 47.7- 29.8---
2024-02-23 01:30 am NW 8.9 15.9------ 47.8- 30.2---
2024-02-23 01:15 am NW 15.0 15.9------ 48.7- 29.7---
2024-02-23 01:00 amWNW 13.0 15.9------ 49.1- 28.8---
2024-02-23 12:45 am NW 13.0------- 49.3- 29.1---
2024-02-23 12:30 am W 9.9------- 49.3- 28.6---
2024-02-23 12:15 amWNW 11.1------- 49.5- 28.6---
2024-02-23 12:00 am W 6.0 9.9------ 48.6- 28.9---
2024-02-22 11:45 pm W 6.0 7.0------ 49.6- 28.4---
2024-02-22 11:30 pm W 7.0------- 48.9- 28.4---
2024-02-22 11:15 pm W 2.9 7.0------ 49.1- 28.4---
2024-02-22 11:00 pm W 4.1 7.0------ 48.6- 28.2---
2024-02-22 10:45 pmWNW 4.1 5.1------ 49.3- 29.3---
2024-02-22 10:30 pmWNW 2.9 5.1------ 49.8- 29.1---
2024-02-22 10:15 pm SW 5.1 5.1------ 50.0- 28.9---
2024-02-22 10:00 pmWNW 4.1 5.1------ 48.9- 30.2---
2024-02-22 09:45 pm W 1.9 6.0------ 46.6- 30.9---
2024-02-22 09:30 pm- 0.0 6.0------ 46.8- 30.9---
2024-02-22 09:15 pmWSW 1.9 6.0------ 47.1- 31.6---
2024-02-22 09:00 pm SW 1.9 6.0------ 48.2- 31.1---
2024-02-22 08:45 pmSSW 4.1 5.1------ 48.6- 30.6---
2024-02-22 08:30 pm SW 4.1 5.1------ 48.6- 30.4---
2024-02-22 08:15 pmWSW 5.1------- 48.4- 30.2---
2024-02-22 08:00 pm SW 1.9 5.1------ 47.8- 29.8---
2024-02-22 07:45 pm SW 4.1 5.1------ 47.3- 29.7---
2024-02-22 07:30 pmSSW 2.9 5.1------ 45.3- 30.0---
2024-02-22 07:15 pmSSW 1.9 5.1------ 41.7- 31.1---
2024-02-22 07:00 pmSSE 4.1 5.1------ 40.5- 32.0---
2024-02-22 06:45 pmSSE 4.1 5.1------ 40.6- 32.0---
2024-02-22 06:30 pmSSE 4.1 5.1------ 40.6- 32.0---
2024-02-22 06:15 pmSSE 4.1 5.1------ 40.1- 32.7---
2024-02-22 06:00 pmSSE 1.9 5.1------ 40.6- 32.2---